Погода в Майском

Россия / Хабаровский край     50°34′46″N   137°02′58″E
темп.,
°C
ветер,
м/с
пор.,
м/с
влажн.,
%
обл.,
%
осадки,
мм/ч
давл.,
гПа
погр.,
м
11 апреля, вс
вс1101:00+5ю495880 0.0 1019163
04:00+3ю51561100 0.0 1019406
07:00+4ю71558100 0.0 1018526
10:00+5ююз81766100 0.0 1018817
13:00+7ююз81271100 0.0 1017894
16:00+11юз685019 0.0 10161423
19:00+10ю5105879 0.1 1017434
22:00+6зсз1281100 0.3 101926
12 апреля, пн
пн1201:00+4ссв4856100 0.0 1019282
04:00+2ссв3854100 0.0 1018310
07:00+1ссз235795 0.0 1019111
10:00+5с3336100 0.0 1018693
13:00+7ссв2232100 0.0 10151283
16:00+4ссв4458100 0.3 1014997
19:00+1с4897100 2.9 1013436
22:00−1с61196100 7.1 1012626
13 апреля, вт
вт1301:00−2с71195100 3.4 1010701
04:00−4с81294100 6.1 1008655
07:00−5с81394100 2.7 1007687
10:00−4с91391100 4.4 1007802
13:00−3с81089100 0.6 1005997
16:00−2с71089100 1.4 1005955
19:00−3с61089100 0.4 1005672
22:00−5с6128999 0.4 1004500
14 апреля, ср
ср1401:00−6ссз61287100 0.0 1003560
04:00−6ссз61288100 0.1 1003701
07:00−7ссз61286100 0.1 1003806
10:00−5ссз71076100 0.3 10051131
13:00−3ссз7970100 0.1 10051458
16:00−2с6868100 0.2 10061310
19:00−4с4979100 0.0 1009498
22:00−7с2488100 0.0 101167
15 апреля, чт
чт1501:00−8с118854 0.0 101121
04:00−13св11946 0.0 10139
07:00−12ю11925 0.0 101425
10:00−4ю35775 0.0 1014403
13:00−1ю468256 0.0 1014719
16:00+1ю577410 0.0 1014840
19:00−1ю36775 0.0 1015166
22:00−6вюв119313 0.0 101610